Regional Weather Roundup
Issued by NWS

Home | Current Version | Previous Version | Text Only | Print | Product List | Glossary On
Versions: 1 2 3 4 5 6 7 8 9 10 11 12 13 14 15 16 17 18 19 20 21 22 23 24 25 26 27 28 29 30 31 32 33 34 35 36 37 38 39 40 41 42 43 44 45 46 47 48 49 50
000
ASUS44 KLIX 070810
RWRLA
LOUISIANA WEATHER ROUNDUP
NATIONAL WEATHER SERVICE NEW ORLEANS LA
200 AM CST SUN FEB 07 2016

NOTE: "FAIR" INDICATES FEW OR NO CLOUDS BELOW 12,000 FEET WITH NO
      SIGNIFICANT WEATHER AND/OR OBSTRUCTIONS TO VISIBILITY.
      SKY/WX - SKY CONDITION AND SIGNIFICANT WEATHER.
      TMP - AIR TEMPERATURE.    DP   - DEWPOINT TEMPERATURE.
      RH  - RELATIVE HUMIDITY.  PRES - PRESSURE.
      HX  - HEAT INDEX.         WCI  - WIND CHILL INDEX.

*  THESE STATIONS ARE NOT NWS OR FAA STATIONS AND ARE NOT UNDER
   NWS QUALITY CONTROL.

LAZ040-048-061>063-065-066-069-070900-
SOUTHEAST LOUISIANA

CITY           SKY/WX    TMP DP  RH WIND       PRES   REMARKS
N.O. AUDUBON   NOT AVBL
N.O. INTL ARPT CLEAR     41  32  70 CALM      30.28R
N.O. LAKEFRONT CLEAR     49  30  48 NE10      30.28S
N.O. DOWNTOWN* FAIR      48  32  53 MISG      30.28S
RESERVE*       FAIR      41  30  65 N6        30.28F
SLIDELL        PTCLDY    32  30  92 CALM      30.27R
BATON ROUGE    CLEAR     34  29  82 CALM      30.30S
BOOTHVILLE     CLEAR     45  40  82 NW8       30.26S
BELLE CHASSE   CLEAR     33  31  92 CALM      30.27R
BOGALUSA*        N/A     32  28  86 CALM      30.29S
GALLIANO*      SUNNY     42  34  72 CALM      30.27F
NEW ROADS*     FAIR      35  33  94 W6        30.32R WCI  29
GONZALES*      FAIR      37  32  82 NW5       30.29S WCI  33
HAMMOND*       CLEAR     34  30  86 N5        30.29R WCI  30
HOUMA*         CLEAR     41  32  69 NW5       30.27F
PORT FOURCHON* SUNNY     46  37  71 N6        30.27S

$$

LAZ041-044-053-054-070900-
SOUTHWEST LOUISIANA

CITY           SKY/WX    TMP DP  RH WIND       PRES   REMARKS
LAKE CHARLES   PTCLDY    37  35  92 N5        30.34F WCI  33
LAFAYETTE      PTCLDY    40  35  83 NW3       30.33R
PATTERSON      PTCLDY    39  34  81 NW8       30.32R WCI  34
SALT POINT       N/A     46  38  73 NW7       30.30R
NEW IBERIA     PTCLDY    38  35  89 NW5       30.33R WCI  34
CHENAULT AIRPK CLEAR     38  37  95 NW3       30.35S

$$

LAZ027-028-070900-
CENTRAL LOUISIANA

CITY           SKY/WX    TMP DP  RH WIND       PRES   REMARKS
FORT POLK      CLEAR     38  37  99 VRB3      30.32F
ALEXANDRIA INT CLEAR     34  34 100 W5        30.33S FOG     WCI  30
ALEXANDRIA     PTCLDY    33  28  81 CALM      30.32F

$$

LAZ001-002-070900-
NORTHWEST LOUISIANA

CITY           SKY/WX    TMP DP  RH WIND       PRES   REMARKS
SHREVEPORT     CLEAR     37  32  82 CALM      30.32F
BARKSDALE AFB  CLEAR     32  30  92 CALM      30.32F
DTN SHREVEPORT CLEAR     39  33  79 W5        30.32F

$$

LAZ014-016-070900-
NORTHEAST LOUISIANA

CITY           SKY/WX    TMP DP  RH WIND       PRES   REMARKS
MONROE         CLEAR     36  31  82 CALM      30.33F
TALLULAH       CLEAR     34  31  88 CALM      30.31S FOG

$$




USA.gov is the U.S. government's official web portal to all federal, state and local government web resources and services.